[ hide orbit diagram ]
For accurate long-term ephemerides, please instead use our Horizons system.This orbit viewer was implemented using two-body methods, and hence should not be used for determining accurate long-term trajectories (over several years or decades) or planetary encounter circumstances.
Orbital Elements at Epoch 2459200.5 (2020-Dec-17.0) TDB
Reference: JPL 31 (heliocentric ecliptic J2000)
Element | Value | Uncertainty (1-sigma) | Units |
e | .08196174031598789 | 3.6978e-08 | |
a | 2.221952665503517 | 6.8149e-09 | au |
q | 2.0398375581391 | 8.2267e-08 | au |
i | 3.791439329243392 | 3.1064e-06 | deg |
node | 261.6414536057731 | 6.3056e-05 | deg |
peri | 297.2045932770538 | 6.6147e-05 | deg |
M | 260.6568269926033 | 2.0251e-05 | deg |
tp | 2459534.338298043068 (2021-Nov-15.83829804) | 6.8287e-05 | TDB |
period | 1209.763928987414 3.31 | 5.5656e-06 1.524e-08 | d yr |
n | .2975787187681517 | 1.369e-09 | deg/d |
Q | 2.404067772867933 | 7.3734e-09 | au |
|
| | Orbit Determination Parameters
Additional Information
|
[ hide covariance matrix ]
Orbital Elements at Epoch 2456992.5 (2014-Dec-01.0) TDB
Reference: JPL 31 (heliocentric ecliptic J2000)
Element | Value | Uncertainty (1-sigma) | Units |
e | .08180931645367097 | 3.7035e-08 | |
q | 2.040292414552274 | 8.2377e-08 | au |
tp | 2457115.296243103818 (2015-Apr-02.79624310) | 6.7466e-05 | TDB |
node | 261.674499694649 | 6.3081e-05 | deg |
peri | 297.2705111217452 | 6.6174e-05 | deg |
i | 3.790335003906586 | 3.106e-06 | deg |
|
| | Orbit Determination Parameters
Additional Information
|
Orbit Covariance (6×6)
|
|
e |
q |
tp |
node |
peri |
i |
e |
1.371596296413408E-15 |
-3.041949112474176E-15 |
-5.580669816591401E-13 |
-5.742131185853135E-15 |
-1.516651984812632E-13 |
-5.308841021177943E-16 |
q |
-3.041949112474176E-15 |
6.78595124991169E-15 |
1.241086190944443E-12 |
1.289368357076069E-14 |
3.352961715464707E-13 |
1.265012580251085E-15 |
tp |
-5.580669816591401E-13 |
1.241086190944443E-12 |
4.55171983409769E-9 |
3.42594729833631E-12 |
1.367376141993263E-9 |
2.43703941072207E-13 |
node |
-5.742131185853135E-15 |
1.289368357076069E-14 |
3.42594729833631E-12 |
3.979211106300461E-9 |
-3.969313005594446E-9 |
-1.475052879364448E-11 |
peri |
-1.516651984812632E-13 |
3.352961715464707E-13 |
1.367376141993263E-9 |
-3.969313005594446E-9 |
4.379059528368338E-9 |
1.47784692210179E-11 |
i |
-5.308841021177943E-16 |
1.265012580251085E-15 |
2.43703941072207E-13 |
-1.475052879364448E-11 |
1.47784692210179E-11 |
9.647407231819945E-12 |
|
Physical Parameter Table
Parameter |
Symbol |
Value |
Units |
Sigma |
Reference |
Notes |
absolute magnitude |
H |
15.01 |
|
n/a |
E2021B10 |
|
|
18836 Raymundto | Discovered 1999 July 13 by the Lincoln Laboratory Near-Earth Asteroid Research Team at Socorro. |
Raymund Chun-Hung To (b. 1985) was awarded third place in the 2003 Intel International Science and Engineering Fair for his mathematics team project. He was also awarded first place in the American Mathematical Society's Karl Menger Memorial Prize. He attends the Fairview High School, Boulder, Colorado, U.S.A. |
NOTE: some special characters may not display properly (any characters within {} are an attempt to place the proper accent above a character) |
Reference: 20040830/MPCPages.arc | Last Updated: 2004-09-06 |
|
[ show close-approach data ]
|